Tracking 25689 objects as of 7-Jul-2022
HD Live streaming from Space Station
objects crossing your sky now

FENGYUN 1C DEB

Track FENGYUN 1C DEB now!
10-day predictions


NORAD ID: 37441
Int'l Code: 1999-025EHK
Perigee: 832.0 km
Apogee: 1,625.4 km
Inclination: 99.1 °
Period: 109.9 minutes
Semi major axis: 7599 km
RCS: 0.0082 m2 (small)
Launch date: May 10, 1999
Source: People's Republic of China (PRC)
Launch site: Taiyaun Space Center, China (TSC)

Note: This is SATELLITE DEBRIS
aabbcc
Your satellite tracking list
Your tracking list is empty




NASA's NSSDC Master Catalog

Two Line Element Set (TLE):
1 37441U 99025EHK 22187.74527516  .00000554  00000-0  85410-3 0  9996
2 37441  99.1396 186.0869 0521982 155.5049 207.1854 13.10415985657127
Source of the keplerian elements: AFSPC